Presure
196 182 196 177 191 192 206 211 145 183 205 207 217 213 109 210 226 196 227 205 180 229 212 235 221 222 248 237 244 233 229 155 236 150 82 186 227 233 244 230 208 209 185 198
209 194 181 203 201 204 193 206 167 184 218 216 220 225 60 244 243 221 224 231 246 208 226 229 219 217 264 237 233 233 234 237 213 244 239 174 220 228 227 256 230 207 183 184
226 198 195 197 210 196 191 199 198 226 228 193 213 188 196 231 238 195 237 244 191 265 239 248 262 250 260 242 234 244 241 246 242 250 256 268 227 228 216 238 230 217 186 202
214 221 228 213 220 220 216 229 192 234 222 220 215 260 192 233 223 233 263 254 226 260 254 125 126 251 258 262 260 261 238 260 261 263 270 268 241 248 216 240 239 221 212 204
222 223 226 227 234 238 236 238 237 242 235 234 238 196 277 95 174 243 117 115 267 270 81 166 302 274 272 287 284 262 267 272 268 271 282 277 252 238 211 225 246 224 217 196
240 236 239 237 244 248 252 244 248 253 249 256 96 259 69 255 269 270 265 272 279 211 292 295 315 333 343 346 319 312 293 285 283 283 284 284 245 277 233 223 244 225 216 166
309 312 312 208 287 276 271 273 267 249 287 265 187 269 278 283 109 73 198 273 263 313 310 374 404 419 438 431 452 458 468 501 419 402 390 372 294 290 246 215 239 224 200 204
298 297 297 313 309 283 287 287 274 268 267 269 274 271 272 250 268 272 293 319 409 411 347 348 392 402 403 409 371 415 398 441 406 390 376 355 321 305 228 216 246 215 211 177
310 291 290 277 274 272 273 268 272 282 281 274 271 275 278 273 289 295 323 395 368 352 358 352 341 330 338 348 344 338 348 364 346 373 359 332 321 318 252 191 242 220 212 200
277 279 274 275 280 285 274 266 264 267 264 271 273 276 282 282 351 414 191 337 336 308 307 305 304 302 304 302 303 309 311 316 315 302 328 331 323 202 216 235 237 218 197 195
276 267 265 267 270 269 268 270 270 271 270 279 281 282 291 383 344 324 318 307 281 285 291 280 286 288 281 274 275 284 285 289 283 278 268 266 309 231 237 236 238 204 204 201
255 270 267 259 258 255 259 263 269 271 274 285 333 366 356 320 306 306 289 258 284 285 284 262 258 269 280 273 265 266 280 282 267 271 264 248 233 237 193 241 221 224 213 181
257 257 254 257 254 261 263 276 306 416 405 366 328 325 311 290 298 279 262 275 279 279 265 268 263 248 234 249 259 257 274 286 298 293 262 243 231 231 216 230 212 225 214 205
249 250 257 259 259 277 344 425 409 401 334 317 300 308 292 283 285 269 265 275 259 255 264 253 254 244 249 255 254 259 263 273 268 263 252 247 232 230 211 212 193 191 201 200
249 248 274 288 420 398 395 383 335 309 303 293 291 289 281 275 280 259 250 264 251 257 248 244 256 249 255 254 250 222 265 269 260 259 255 226 254 222 215 202 193 195 191 203
285 280 304 385 383 334 350 304 291 292 288 280 279 280 267 272 278 246 243 248 256 239 252 249 251 255 214 245 236 251 241 248 236 258 246 234 229 224 203 199 203 197 181 190
281 364 382 354 342 336 327 287 280 284 274 276 277 273 265 275 264 253 240 247 241 252 240 242 251 247 238 237 232 246 240 257 247 241 238 233 209 206 210 201 195 197 190 188
352 329 348 332 328 334 291 277 276 283 268 270 272 267 264 261 254 246 262 250 244 220 241 248 237 247 239 236 231 243 236 237 247 233 223 215 211 209 200 201 194 203 197 197
334 316 312 323 321 314 278 282 270 284 267 264 267 264 256 256 252 249 240 257 253 236 235 236 258 241 237 239 226 231 210 236 233 221 212 219 201 212 202 201 203 207 198 199
311 325 313 310 309 294 274 273 266 269 258 264 264 253 260 230 237 253 246 249 245 249 236 248 227 237 238 228 216 225 229 219 227 213 214 211 205 205 211 207 202 207 208 200
296 288 305 296 307 296 280 265 263 252 260 254 261 257 250 276 231 231 255 230 245 254 247 244 240 245 238 232 234 215 223 229 218 214 206 204 209 207 201 207 206 214 183 203
297 289 291 301 284 296 275 254 262 257 253 254 259 258 257 243 247 233 237 249 242 235 248 240 236 238 232 237 213 229 217 216 211 208 216 217 211 208 205 201 201 197 196 197
285 295 265 295 284 277 288 281 255 250 252 248 247 259 242 243 248 255 237 252 250 236 243 241 243 226 252 226 237 225 233 220 214 214 203 204 211 214 210 205 203 203 206 214
283 275 268 254 258 286 282 279 276 261 257 249 253 251 247 250 244 246 252 238 264 257 246 239 242 240 244 235 237 214 233 224 219 215 214 215 199 204 208 206 205 198 201 200
282 276 276 270 259 264 285 261 282 272 258 262 260 251 253 243 247 245 243 240 244 245 246 242 248 225 244 239 220 225 219 226 225 214 217 212 215 216 213 209 208 209 209 209
275 267 266 257 258 258 251 268 279 274 268 269 256 261 263 259 253 261 251 261 253 252 254 251 245 247 242 250 250 238 234 240 228 232 219 219 215 209 204 204 206 214 215 216
Wind_Speed
85 82 80 83 79 83 79 82 58 79 87 84 87 79 63 83 87 84 87 94 85 85 93 85 88 90 89 85 85 89 85 57 80 47 31 54 70 69 64 71 71 66 63 53
92 84 87 88 86 86 81 84 78 78 92 87 86 81 17 87 80 91 87 90 84 95 85 87 94 94 84 89 90 89 86 85 72 76 62 56 69 72 65 69 71 66 62 60
91 91 90 91 94 83 78 77 90 94 93 85 86 71 80 77 89 88 88 88 97 83 85 88 78 82 82 90 93 90 86 89 78 77 72 63 72 69 54 56 63 72 64 60
94 91 92 92 93 94 91 92 84 87 89 89 89 89 82 81 92 86 90 86 91 84 83 35 42 86 90 92 96 97 78 96 99 93 83 70 63 54 58 64 67 72 67 58
98 99 100 99 98 99 98 97 93 94 92 88 92 82 80 8 55 90 19 28 87 91 17 51 94 95 97 101 106 95 94 100 101 94 93 77 61 61 69 70 68 66 63 61
113 110 108 100 108 110 108 98 100 102 100 95 7 96 17 86 87 83 85 87 90 79 95 90 90 91 91 94 97 106 103 99 102 104 98 83 63 67 71 68 66 63 63 43
79 79 80 72 90 93 95 93 97 85 85 86 62 87 84 79 30 20 52 76 73 78 78 56 42 35 29 30 29 33 42 54 60 63 67 69 69 67 71 69 65 62 52 55
67 70 72 76 75 77 75 74 76 79 81 81 78 78 76 70 76 77 71 77 52 25 23 24 24 15 13 14 23 20 28 38 44 48 53 56 63 61 67 64 63 65 62 50
58 54 58 63 66 67 66 70 70 68 71 72 71 76 70 71 71 71 64 21 20 20 17 13 14 11 6 4 5 13 14 24 33 39 47 52 60 61 71 48 64 62 61 53
50 52 56 59 57 55 58 65 67 68 71 71 71 69 70 69 51 21 16 20 14 17 17 18 15 15 14 10 7 5 8 12 17 23 38 51 54 56 69 60 64 62 54 50
43 49 53 52 54 56 58 62 64 64 66 70 73 71 70 19 13 16 17 25 20 21 25 18 13 14 15 12 10 11 13 18 24 29 30 37 39 61 54 57 64 51 59 52
48 46 44 46 48 52 57 61 64 63 67 70 40 17 17 16 19 23 33 22 29 30 24 22 18 9 10 14 11 13 18 21 28 36 36 47 54 52 35 54 47 56 55 46
39 43 46 50 54 58 59 62 64 21 12 24 24 24 28 22 26 32 27 33 29 31 27 29 24 21 24 23 21 21 17 13 20 29 38 48 54 54 53 44 49 51 45 45
39 47 51 53 56 58 42 9 7 24 29 31 27 29 30 29 38 38 35 35 27 27 29 27 27 30 35 24 18 9 25 20 30 35 41 48 46 43 45 40 43 47 51 55
44 47 48 50 12 2 8 13 28 32 35 31 28 32 32 34 40 37 28 33 31 28 29 28 26 29 31 28 32 28 28 31 34 36 40 48 43 50 52 52 55 56 54 58
47 40 47 10 9 10 18 29 31 36 36 33 30 33 31 36 45 34 28 36 32 32 29 33 29 27 25 30 29 29 27 34 38 26 46 49 49 53 55 57 60 60 47 52
40 25 6 9 13 24 42 35 34 39 35 36 35 34 34 40 46 42 29 36 35 37 34 35 32 31 32 34 32 31 31 34 41 49 52 54 52 56 57 57 58 57 57 58
12 20 7 12 17 29 47 34 34 41 34 35 35 37 36 42 44 37 45 40 39 20 37 30 32 31 34 37 35 31 35 37 44 51 53 59 57 59 57 60 58 61 65 67
14 16 10 6 17 35 43 43 36 40 36 36 40 39 37 43 45 40 31 45 45 38 29 34 30 32 34 36 38 36 34 41 46 51 52 58 52 60 61 61 67 67 68 68
14 13 14 13 20 41 44 43 35 37 36 38 39 33 40 22 24 46 41 47 41 46 37 40 29 36 37 42 38 40 41 46 49 52 54 57 59 61 61 65 69 72 70 66
12 11 16 18 22 40 49 38 38 28 39 33 41 40 36 49 24 23 51 27 43 50 46 42 38 37 40 42 45 45 46 48 52 54 56 57 61 62 60 65 72 69 50 59
17 12 15 23 27 30 46 28 41 39 36 36 39 42 45 32 40 33 35 51 50 39 49 42 32 46 39 44 42 54 54 54 54 55 59 62 64 64 63 65 68 65 62 61
21 16 18 18 25 30 36 47 37 36 38 33 33 42 34 32 38 45 38 54 56 45 48 47 47 29 50 45 48 55 57 61 60 63 61 63 66 70 71 72 71 72 78 82
27 19 16 21 16 26 30 39 41 50 47 41 42 39 39 48 38 41 48 36 56 63 53 47 50 46 47 45 52 48 59 61 65 68 70 71 63 70 76 75 77 69 73 70
34 25 21 16 18 14 25 32 33 45 44 54 54 43 48 38 41 35 34 31 35 39 47 50 55 46 62 57 53 55 61 63 70 68 75 72 76 80 81 79 80 85 86 87
35 27 22 21 21 21 24 21 31 37 42 50 48 54 59 53 42 53 45 49 45 44 48 49 52 53 57 62 64 60 60 61 71 75 78 80 81 80 75 75 80 89 93 95
Wind_Direction
277 264 271 267 272 265 268 271 277 268 269 268 270 270 273 269 271 269 268 265 278 265 266 266 266 267 265 260 263 263 262 260 264 275 249 267 249 245 247 243 246 249 261 252
269 269 268 271 270 270 269 271 273 274 269 271 271 268 246 274 271 264 265 268 271 267 269 265 264 271 257 256 257 261 264 265 267 264 251 275 248 245 242 245 244 248 258 258
266 268 268 268 269 268 269 269 269 269 268 273 270 274 268 272 271 275 274 278 275 278 268 270 265 261 259 255 261 260 263 266 266 265 261 256 238 244 249 242 240 242 258 248
268 271 277 267 268 272 271 273 269 278 268 265 274 281 268 274 276 283 284 282 275 275 273 261 261 261 259 255 253 254 266 261 262 262 261 256 227 241 239 238 232 235 238 241
274 276 276 275 277 279 279 279 278 279 277 277 278 274 284 235 283 282 242 258 275 273 276 270 266 261 261 259 251 254 255 256 260 261 262 259 235 234 238 241 231 231 234 246
272 274 275 276 277 276 276 278 278 280 279 280 203 282 263 281 280 276 276 272 271 275 274 274 271 268 265 261 257 252 253 256 257 258 257 254 230 243 231 234 227 224 229 250
271 273 272 276 271 272 273 274 276 277 275 280 273 279 281 280 267 259 271 276 280 280 277 273 261 260 266 257 261 254 245 238 233 237 239 240 235 229 225 237 224 220 232 233
275 276 276 270 268 274 271 269 272 276 276 275 276 277 277 275 276 279 287 286 280 262 263 260 244 249 259 252 238 257 237 240 232 231 230 226 225 221 234 234 221 224 225 240
271 269 268 268 269 271 270 270 272 272 273 276 275 275 277 279 285 289 287 251 231 238 231 203 163 194 113 80 261 239 231 226 222 220 216 214 216 217 225 250 219 221 231 234
271 271 269 270 272 271 268 272 275 274 273 275 278 280 284 289 283 251 246 229 215 170 161 137 134 142 115 121 132 156 191 199 199 199 211 214 215 240 229 222 215 219 232 237
273 272 272 272 271 271 270 270 269 273 278 282 284 284 285 236 219 214 196 165 196 179 152 182 141 127 139 174 173 160 182 185 183 186 190 202 212 216 211 215 214 221 236 238
269 273 277 277 275 273 274 277 278 282 283 282 272 186 190 178 195 192 166 249 185 165 149 194 186 149 134 153 182 191 182 185 201 186 183 193 206 207 231 212 214 217 229 242
275 278 280 278 275 276 277 278 277 253 189 155 181 187 171 197 187 175 207 184 180 165 184 160 164 166 216 215 194 185 156 146 180 172 184 194 204 210 222 205 228 222 227 232
277 278 276 276 278 279 283 283 199 164 158 168 195 176 177 188 186 188 196 180 202 209 167 188 184 205 195 186 177 213 167 159 169 176 186 192 208 207 212 213 226 231 227 233
277 280 283 284 261 281 121 140 146 160 171 181 197 183 186 194 191 198 197 183 203 181 198 209 193 196 180 174 173 226 179 161 166 172 182 209 184 205 208 214 226 227 233 230
289 289 295 273 141 189 143 156 174 176 182 198 205 187 197 199 190 214 208 202 185 220 192 200 202 195 228 191 200 191 200 191 196 197 182 193 193 199 220 224 221 232 245 249
295 298 287 189 173 167 156 174 188 184 198 201 198 193 199 197 194 209 218 209 218 195 213 211 206 199 202 201 208 193 197 192 190 184 184 191 216 220 215 225 232 235 240 245
292 301 183 173 183 166 170 191 198 186 199 202 205 199 198 201 203 220 202 212 220 245 218 220 217 197 205 202 209 197 197 195 188 190 200 206 210 213 225 227 233 232 236 241
282 300 258 213 173 168 187 187 199 193 203 205 208 204 205 208 208 221 237 213 216 236 244 230 209 204 207 205 211 202 217 198 193 200 211 210 225 215 222 226 230 231 237 241
290 218 219 198 187 182 189 200 204 207 213 213 210 212 210 212 230 221 232 228 232 221 240 220 231 210 208 208 218 209 205 211 200 211 214 218 224 230 230 231 237 236 239 243
270 227 224 205 200 192 191 209 209 218 213 221 219 220 222 215 229 242 223 249 238 221 228 233 225 213 213 212 211 222 212 211 216 217 223 227 225 230 231 235 245 248 251 250
241 226 212 211 199 198 205 222 212 218 225 227 224 225 224 228 227 237 246 234 241 249 233 241 238 228 227 218 224 214 220 219 223 225 223 224 229 233 234 238 243 250 252 253
242 222 180 210 214 208 205 213 222 230 231 238 236 231 232 237 239 235 238 240 240 247 246 251 249 241 228 230 222 225 222 222 226 224 232 233 234 235 238 241 245 249 252 253
227 225 194 193 189 213 202 213 217 222 232 240 241 241 239 240 245 242 241 240 239 237 249 256 251 258 245 233 226 235 228 228 229 231 229 230 242 239 240 243 248 256 258 260
218 227 229 214 187 194 216 227 223 224 231 234 241 246 246 248 249 249 248 248 251 251 250 251 250 240 250 247 234 234 233 232 232 234 232 237 236 238 241 245 248 250 253 256
224 234 224 199 194 197 199 220 227 232 235 237 245 246 248 252 257 255 250 256 255 261 261 255 248 248 243 245 248 244 235 238 234 232 236 238 240 244 249 250 251 251 251 253